This demonstration page uses our WeatherBlox Daily Observations layout. Learn more.

38.89511, -77.03637

Hourly Observations for February 24, 2015

Temp ( °F °C ) Dew Point ( °F °C ) Humidity (%) Winds ( mph kmh ) Pressure ( in mb ) Visibility ( mi km ) Precip ( " mm )
12:52 am 00:52 Partly Cloudy 18 -8 -8 -22 32 32 NNW 10 17 30.42 1030 10 16.09344 0 0
1:52 am 01:52 Mostly Clear 18 -8 -6 -21 35 35 NNW 7 11 30.42 1030 10 16.09344 0 0
2:52 am 02:52 Partly Cloudy 16 -9 -6 -21 37 37 NNW 8 13 30.39 1029 10 16.09344 0 0
3:52 am 03:52 Mostly Cloudy 16 -9 -6 -21 37 37 NNW 7 11 30.39 1029 10 16.09344 0 0
4:52 am 04:52 Partly Cloudy 16 -9 -2 -19 45 45 NNE 3 6 30.36 1028 10 16.09344 0 0
5:52 am 05:52 Mostly Cloudy 16 -9 -6 -21 37 37 NE 7 11 30.36 1028 10 16.09344 0 0
6:52 am 06:52 Partly Cloudy 16 -9 -4 -20 41 41 ENE 6 9 30.36 1028 10 16.09344 0 0
7:52 am 07:52 Mostly Cloudy 16 -9 -6 -21 37 37 ENE 5 7 30.36 1028 10 16.09344 0 0
8:52 am 08:52 Partly Cloudy 18 -8 -6 -21 35 35 ESE 5 7 30.36 1028 10 16.09344 0 0
9:52 am 09:52 Partly Cloudy 19 -7 0 -18 42 42 SSW 7 11 30.33 1027 10 16.09344 0 0
10:52 am 10:52 Partly Cloudy 21 -6 1 -17 42 42 S 7 11 30.3 1026 10 16.09344 0 0
11:52 am 11:52 Mostly Cloudy 25 -4 1 -17 36 36 S 12 19 30.24 1024 10 16.09344 0 0
12:52 pm 12:52 Partly Cloudy 27 -3 3 -16 36 36 S 10 17 30.18 1022 10 16.09344 0 0
1:52 pm 13:52 Partly Cloudy 28 -2 5 -15 37 37 S 12 19 30.12 1020 10 16.09344 0 0
2:52 pm 14:52 Partly Cloudy 28 -2 7 -14 40 40 S 12 19 30.06 1018 10 16.09344 0 0
3:52 pm 15:52 Mostly Cloudy 28 -2 7 -14 40 40 S 13 20 30.03 1017 10 16.09344 0 0
4:52 pm 16:52 Mostly Cloudy 28 -2 7 -14 40 40 S 13 20 30 1016 10 16.09344 0 0
5:52 pm 17:52 Mostly Cloudy 28 -2 9 -13 43 43 S 13 20 29.97 1015 10 16.09344 0 0
6:52 pm 18:52 Mostly Cloudy 27 -3 9 -13 46 46 S 13 20 29.97 1015 10 16.09344 0 0
7:52 pm 19:52 Mostly Cloudy 27 -3 10 -12 50 50 S 8 13 29.94 1014 10 16.09344 0 0
8:52 pm 20:52 Partly Cloudy 27 -3 12 -11 54 54 S 8 13 29.91 1013 10 16.09344 0 0
9:52 pm 21:52 Mostly Clear 25 -4 10 -12 54 54 SSW 6 9 29.91 1013 10 16.09344 0 0
10:52 pm 22:52 Partly Cloudy 25 -4 10 -12 54 54 S 7 11 29.88 1012 10 16.09344 0 0
11:52 pm 23:52 Partly Cloudy 25 -4 10 -12 54 54 SW 6 9 29.85 1011 10 16.09344 0 0

Powered by AerisWeather